Year,Month,Day,Hour,Minute,Value (Times are PST for temperature in C)
2012,10,09,00,00,12.50
2012,10,09,00,01,12.40
2012,10,09,00,02,12.40
2012,10,09,00,03,12.40
2012,10,09,00,04,12.40
2012,10,09,00,05,12.30
2012,10,09,00,06,12.30
2012,10,09,00,07,12.30
2012,10,09,00,08,12.20
2012,10,09,00,09,12.20
2012,10,09,00,10,12.20
2012,10,09,00,11,12.20
2012,10,09,00,12,12.10
2012,10,09,00,13,12.10
2012,10,09,00,14,12.10
2012,10,09,00,15,12.10
2012,10,09,00,16,12.10
2012,10,09,00,17,12.10
2012,10,09,00,18,12.00
2012,10,09,00,19,12.00
2012,10,09,00,20,11.90
2012,10,09,00,21,11.90
2012,10,09,00,22,11.90
2012,10,09,00,23,11.90
2012,10,09,00,24,11.80
2012,10,09,00,25,11.80
2012,10,09,00,26,11.80
2012,10,09,00,27,11.70
2012,10,09,00,28,11.70
2012,10,09,00,29,11.70
2012,10,09,00,30,11.60
2012,10,09,00,31,11.60
2012,10,09,00,32,11.60
2012,10,09,00,33,11.50
2012,10,09,00,34,11.50
2012,10,09,00,35,11.50
2012,10,09,00,36,11.40
2012,10,09,00,37,11.40
2012,10,09,00,38,11.40
2012,10,09,00,39,11.40
2012,10,09,00,40,11.30
2012,10,09,00,41,11.30
2012,10,09,00,42,11.30
2012,10,09,00,43,11.30
2012,10,09,00,44,11.20
2012,10,09,00,45,11.20
2012,10,09,00,46,11.20
2012,10,09,00,47,11.20
2012,10,09,00,48,11.20
2012,10,09,00,49,11.10
2012,10,09,00,50,11.10
2012,10,09,00,51,11.10
2012,10,09,00,52,11.10
2012,10,09,00,53,11.00
2012,10,09,00,54,11.00
2012,10,09,00,55,11.00
2012,10,09,00,56,10.90
2012,10,09,00,57,10.90
2012,10,09,00,58,10.90
2012,10,09,00,59,10.90
2012,10,09,01,00,10.90
2012,10,09,01,01,10.80
2012,10,09,01,02,10.80
2012,10,09,01,03,10.80
2012,10,09,01,04,10.80
2012,10,09,01,05,10.80
2012,10,09,01,06,10.70
2012,10,09,01,07,10.70
2012,10,09,01,08,10.70
2012,10,09,01,09,10.70
2012,10,09,01,10,10.60
2012,10,09,01,11,10.60
2012,10,09,01,12,10.60
2012,10,09,01,13,10.60
2012,10,09,01,14,10.50
2012,10,09,01,15,10.50
2012,10,09,01,16,10.50
2012,10,09,01,17,10.40
2012,10,09,01,18,10.40
2012,10,09,01,19,10.40
2012,10,09,01,20,10.40
2012,10,09,01,21,10.30
2012,10,09,01,22,10.30
2012,10,09,01,23,10.30
2012,10,09,01,24,10.30
2012,10,09,01,25,10.30
2012,10,09,01,26,10.20
2012,10,09,01,27,10.20
2012,10,09,01,28,10.20
2012,10,09,01,29,10.20
2012,10,09,01,30,10.10
2012,10,09,01,31,10.10
2012,10,09,01,32,10.10
2012,10,09,01,33,10.10
2012,10,09,01,34,10.10
2012,10,09,01,35,10.10
2012,10,09,01,36,10.00
2012,10,09,01,37,10.00
2012,10,09,01,38,10.00
2012,10,09,01,39,10.00
2012,10,09,01,40,10.00
2012,10,09,01,41,10.00
2012,10,09,01,42,9.90
2012,10,09,01,43,9.90
2012,10,09,01,44,9.90
2012,10,09,01,45,9.90
2012,10,09,01,46,9.90
2012,10,09,01,47,9.90
2012,10,09,01,48,9.90
2012,10,09,01,49,9.90
2012,10,09,01,50,9.90
2012,10,09,01,51,9.90
2012,10,09,01,52,9.80
2012,10,09,01,53,9.80
2012,10,09,01,54,9.80
2012,10,09,01,55,9.90
2012,10,09,01,56,9.90
2012,10,09,01,57,9.80
2012,10,09,01,58,9.80
2012,10,09,01,59,9.80
2012,10,09,02,00,9.80
2012,10,09,02,01,9.80
2012,10,09,02,02,9.80
2012,10,09,02,03,9.70
2012,10,09,02,04,9.70
2012,10,09,02,05,9.70
2012,10,09,02,06,9.70
2012,10,09,02,07,9.70
2012,10,09,02,08,9.60
2012,10,09,02,09,9.60
2012,10,09,02,10,9.60
2012,10,09,02,11,9.60
2012,10,09,02,12,9.60
2012,10,09,02,13,9.60
2012,10,09,02,14,9.50
2012,10,09,02,15,9.50
2012,10,09,02,16,9.50
2012,10,09,02,17,9.50
2012,10,09,02,18,9.40
2012,10,09,02,19,9.40
2012,10,09,02,20,9.40
2012,10,09,02,21,9.40
2012,10,09,02,22,9.40
2012,10,09,02,23,9.40
2012,10,09,02,24,9.40
2012,10,09,02,25,9.40
2012,10,09,02,26,9.30
2012,10,09,02,27,9.30
2012,10,09,02,28,9.30
2012,10,09,02,29,9.30
2012,10,09,02,30,9.30
2012,10,09,02,31,9.20
2012,10,09,02,32,9.20
2012,10,09,02,33,9.20
2012,10,09,02,34,9.20
2012,10,09,02,35,9.20
2012,10,09,02,36,9.10
2012,10,09,02,37,9.10
2012,10,09,02,38,9.10
2012,10,09,02,39,9.10
2012,10,09,02,40,9.00
2012,10,09,02,41,9.00
2012,10,09,02,42,9.00
2012,10,09,02,43,9.00
2012,10,09,02,44,8.90
2012,10,09,02,45,8.90
2012,10,09,02,46,9.00
2012,10,09,02,47,8.90
2012,10,09,02,48,8.90
2012,10,09,02,49,8.90
2012,10,09,02,50,8.90
2012,10,09,02,51,8.90
2012,10,09,02,52,8.90
2012,10,09,02,53,8.90
2012,10,09,02,54,8.90
2012,10,09,02,55,8.90
2012,10,09,02,56,9.00
2012,10,09,02,57,9.00
2012,10,09,02,58,9.00
2012,10,09,02,59,9.00
2012,10,09,03,00,8.90
2012,10,09,03,01,8.90
2012,10,09,03,02,8.90
2012,10,09,03,03,8.90
2012,10,09,03,04,8.90
2012,10,09,03,05,8.90
2012,10,09,03,06,8.90
2012,10,09,03,07,8.90
2012,10,09,03,08,8.90
2012,10,09,03,09,8.90
2012,10,09,03,10,8.90
2012,10,09,03,11,8.90
2012,10,09,03,12,8.90
2012,10,09,03,13,8.90
2012,10,09,03,14,8.90
2012,10,09,03,15,8.90
2012,10,09,03,16,9.00
2012,10,09,03,17,9.00
2012,10,09,03,18,9.00
2012,10,09,03,19,9.10
2012,10,09,03,20,9.10
2012,10,09,03,21,9.20
2012,10,09,03,22,9.20
2012,10,09,03,23,9.20
2012,10,09,03,24,9.20
2012,10,09,03,25,9.20
2012,10,09,03,26,9.20
2012,10,09,03,27,9.20
2012,10,09,03,28,9.10
2012,10,09,03,29,9.10
2012,10,09,03,30,9.10
2012,10,09,03,31,9.10
2012,10,09,03,32,9.10
2012,10,09,03,33,9.10
2012,10,09,03,34,9.00
2012,10,09,03,35,9.00
2012,10,09,03,36,9.00
2012,10,09,03,37,9.00
2012,10,09,03,38,8.90
2012,10,09,03,39,8.90
2012,10,09,03,40,8.90
2012,10,09,03,41,8.90
2012,10,09,03,42,8.90
2012,10,09,03,43,8.90
2012,10,09,03,44,8.80
2012,10,09,03,45,8.80
2012,10,09,03,46,8.80
2012,10,09,03,47,8.80
2012,10,09,03,48,8.80
2012,10,09,03,49,8.80
2012,10,09,03,50,8.80
2012,10,09,03,51,8.70
2012,10,09,03,52,8.70
2012,10,09,03,53,8.70
2012,10,09,03,54,8.70
2012,10,09,03,55,8.70
2012,10,09,03,56,8.70
2012,10,09,03,57,8.70
2012,10,09,03,58,8.70
2012,10,09,03,59,8.70
2012,10,09,04,00,8.70
2012,10,09,04,01,8.60
2012,10,09,04,02,8.60
2012,10,09,04,03,8.60
2012,10,09,04,04,8.60
2012,10,09,04,05,8.60
2012,10,09,04,06,8.50
2012,10,09,04,07,8.50
2012,10,09,04,08,8.50
2012,10,09,04,09,8.50
2012,10,09,04,10,8.50
2012,10,09,04,11,8.50
2012,10,09,04,12,8.50
2012,10,09,04,13,8.50
2012,10,09,04,14,8.40
2012,10,09,04,15,8.40
2012,10,09,04,16,8.40
2012,10,09,04,17,8.40
2012,10,09,04,18,8.40
2012,10,09,04,19,8.30
2012,10,09,04,20,8.30
2012,10,09,04,21,8.30
2012,10,09,04,22,8.30
2012,10,09,04,23,8.30
2012,10,09,04,24,8.30
2012,10,09,04,25,8.30
2012,10,09,04,26,8.30
2012,10,09,04,27,8.30
2012,10,09,04,28,8.20
2012,10,09,04,29,8.20
2012,10,09,04,30,8.20
2012,10,09,04,31,8.20
2012,10,09,04,32,8.20
2012,10,09,04,33,8.20
2012,10,09,04,34,8.20
2012,10,09,04,35,8.20
2012,10,09,04,36,8.20
2012,10,09,04,37,8.20
2012,10,09,04,38,8.20
2012,10,09,04,39,8.20
2012,10,09,04,40,8.20
2012,10,09,04,41,8.30
2012,10,09,04,42,8.30
2012,10,09,04,43,8.30
2012,10,09,04,44,8.30
2012,10,09,04,45,8.30
2012,10,09,04,46,8.30
2012,10,09,04,47,8.30
2012,10,09,04,48,8.30
2012,10,09,04,49,8.30
2012,10,09,04,50,8.30
2012,10,09,04,51,8.30
2012,10,09,04,52,8.30
2012,10,09,04,53,8.30
2012,10,09,04,54,8.20
2012,10,09,04,55,8.20
2012,10,09,04,56,8.20
2012,10,09,04,57,8.20
2012,10,09,04,58,8.20
2012,10,09,04,59,8.20
2012,10,09,05,00,8.20
2012,10,09,05,01,8.20
2012,10,09,05,02,8.10
2012,10,09,05,03,8.10
2012,10,09,05,04,8.10
2012,10,09,05,05,8.10
2012,10,09,05,06,8.00
2012,10,09,05,07,8.00
2012,10,09,05,08,7.90
2012,10,09,05,09,7.90
2012,10,09,05,10,7.90
2012,10,09,05,11,7.90
2012,10,09,05,12,7.80
2012,10,09,05,13,7.80
2012,10,09,05,14,7.80
2012,10,09,05,15,7.80
2012,10,09,05,16,7.80
2012,10,09,05,17,7.80
2012,10,09,05,18,7.80
2012,10,09,05,19,7.70
2012,10,09,05,20,7.70
2012,10,09,05,21,7.70
2012,10,09,05,22,7.70
2012,10,09,05,23,7.70
2012,10,09,05,24,7.70
2012,10,09,05,25,7.70
2012,10,09,05,26,7.70
2012,10,09,05,27,7.70
2012,10,09,05,28,7.80
2012,10,09,05,29,7.80
2012,10,09,05,30,7.80
2012,10,09,05,31,7.80
2012,10,09,05,32,7.80
2012,10,09,05,33,7.80
2012,10,09,05,34,7.80
2012,10,09,05,35,7.80
2012,10,09,05,36,7.80
2012,10,09,05,37,7.80
2012,10,09,05,38,7.80
2012,10,09,05,39,7.80
2012,10,09,05,40,7.80
2012,10,09,05,41,7.80
2012,10,09,05,42,7.80
2012,10,09,05,43,7.80
2012,10,09,05,44,7.80
2012,10,09,05,45,7.70
2012,10,09,05,46,7.70
2012,10,09,05,47,7.70
2012,10,09,05,48,7.70
2012,10,09,05,49,7.70
2012,10,09,05,50,7.70
2012,10,09,05,51,7.70
2012,10,09,05,52,7.60
2012,10,09,05,53,7.60
2012,10,09,05,54,7.60
2012,10,09,05,55,7.60
2012,10,09,05,56,7.60
2012,10,09,05,57,7.60
2012,10,09,05,58,7.60
2012,10,09,05,59,7.70
2012,10,09,06,00,7.70
2012,10,09,06,01,7.70
2012,10,09,06,02,7.70
2012,10,09,06,03,7.70
2012,10,09,06,04,7.70
2012,10,09,06,05,7.70
2012,10,09,06,06,7.70
2012,10,09,06,07,7.70
2012,10,09,06,08,7.70
2012,10,09,06,09,7.70
2012,10,09,06,10,7.70
2012,10,09,06,11,7.70
2012,10,09,06,12,7.70
2012,10,09,06,13,7.70
2012,10,09,06,14,7.70
2012,10,09,06,15,7.70
2012,10,09,06,16,7.70
2012,10,09,06,17,7.70
2012,10,09,06,18,7.70
2012,10,09,06,19,7.70
2012,10,09,06,20,7.70
2012,10,09,06,21,7.70
2012,10,09,06,22,7.70
2012,10,09,06,23,7.70
2012,10,09,06,24,7.70
2012,10,09,06,25,7.70
2012,10,09,06,26,7.70
2012,10,09,06,27,7.70
2012,10,09,06,28,7.70
2012,10,09,06,29,7.70
2012,10,09,06,30,7.70
2012,10,09,06,31,7.70
2012,10,09,06,32,7.70
2012,10,09,06,33,7.70
2012,10,09,06,34,7.70
2012,10,09,06,35,7.70
2012,10,09,06,36,7.70
2012,10,09,06,37,7.70
2012,10,09,06,38,7.70
2012,10,09,06,39,7.70
2012,10,09,06,40,7.70
2012,10,09,06,41,7.70
2012,10,09,06,42,7.70
2012,10,09,06,43,7.70
2012,10,09,06,44,7.70
2012,10,09,06,45,7.70
2012,10,09,06,46,7.70
2012,10,09,06,47,7.70
2012,10,09,06,48,7.70
2012,10,09,06,49,7.70
2012,10,09,06,50,7.70
2012,10,09,06,51,7.70
2012,10,09,06,52,7.70
2012,10,09,06,53,7.70
2012,10,09,06,54,7.70
2012,10,09,06,55,7.60
2012,10,09,06,56,7.60
2012,10,09,06,57,7.60
2012,10,09,06,58,7.60
2012,10,09,06,59,7.50
2012,10,09,07,00,7.50
2012,10,09,07,01,7.50
2012,10,09,07,02,7.40
2012,10,09,07,03,7.40
2012,10,09,07,04,7.40
2012,10,09,07,05,7.40
2012,10,09,07,06,7.40
2012,10,09,07,07,7.50
2012,10,09,07,08,7.50
2012,10,09,07,09,7.50
2012,10,09,07,10,7.50
2012,10,09,07,11,7.50
2012,10,09,07,12,7.50
2012,10,09,07,13,7.50
2012,10,09,07,14,7.50
2012,10,09,07,15,7.40
2012,10,09,07,16,7.40
2012,10,09,07,17,7.40
2012,10,09,07,18,7.40
2012,10,09,07,19,7.50
2012,10,09,07,20,7.50
2012,10,09,07,21,7.60
2012,10,09,07,22,7.60
2012,10,09,07,23,7.60
2012,10,09,07,24,7.60
2012,10,09,07,25,7.60
2012,10,09,07,26,7.60
2012,10,09,07,27,7.60
2012,10,09,07,28,7.60
2012,10,09,07,29,7.60
2012,10,09,07,30,7.50
2012,10,09,07,31,7.50
2012,10,09,07,32,7.50
2012,10,09,07,33,7.50
2012,10,09,07,34,7.40
2012,10,09,07,35,7.40
2012,10,09,07,36,7.40
2012,10,09,07,37,7.30
2012,10,09,07,38,7.30
2012,10,09,07,39,7.30
2012,10,09,07,40,7.30
2012,10,09,07,41,7.20
2012,10,09,07,42,7.20
2012,10,09,07,43,7.20
2012,10,09,07,44,7.20
2012,10,09,07,45,7.20
2012,10,09,07,46,7.20
2012,10,09,07,47,7.10
2012,10,09,07,48,7.10
2012,10,09,07,49,7.10
2012,10,09,07,50,7.10
2012,10,09,07,51,7.10
2012,10,09,07,52,7.10
2012,10,09,07,53,7.10
2012,10,09,07,54,7.10
2012,10,09,07,55,7.20
2012,10,09,07,56,7.20
2012,10,09,07,57,7.20
2012,10,09,07,58,7.20
2012,10,09,07,59,7.20
2012,10,09,08,00,7.20
2012,10,09,08,01,7.20
2012,10,09,08,02,7.20
2012,10,09,08,03,7.20
2012,10,09,08,04,7.30
2012,10,09,08,05,7.30
2012,10,09,08,06,7.30
2012,10,09,08,07,7.30
2012,10,09,08,08,7.30
2012,10,09,08,09,7.40
2012,10,09,08,10,7.40
2012,10,09,08,11,7.40
2012,10,09,08,12,7.40
2012,10,09,08,13,7.40
2012,10,09,08,14,7.50
2012,10,09,08,15,7.50
2012,10,09,08,16,7.50
2012,10,09,08,17,7.60
2012,10,09,08,18,7.60
2012,10,09,08,19,7.60
2012,10,09,08,20,7.70
2012,10,09,08,21,7.70
2012,10,09,08,22,7.70
2012,10,09,08,23,7.70
2012,10,09,08,24,7.70
2012,10,09,08,25,7.70
2012,10,09,08,26,7.70
2012,10,09,08,27,7.80
2012,10,09,08,28,7.80
2012,10,09,08,29,7.80
2012,10,09,08,30,7.80
2012,10,09,08,31,7.80
2012,10,09,08,32,7.80
2012,10,09,08,33,7.90
2012,10,09,08,34,7.90
2012,10,09,08,35,7.90
2012,10,09,08,36,8.00
2012,10,09,08,37,8.00
2012,10,09,08,38,8.10
2012,10,09,08,39,8.10
2012,10,09,08,40,8.10
2012,10,09,08,41,8.20
2012,10,09,08,42,8.20
2012,10,09,08,43,8.30
2012,10,09,08,44,8.40
2012,10,09,08,45,8.50
2012,10,09,08,46,8.60
2012,10,09,08,47,8.70
2012,10,09,08,48,8.80
2012,10,09,08,49,8.90
2012,10,09,08,50,9.10
2012,10,09,08,51,9.20
2012,10,09,08,52,9.30
2012,10,09,08,53,9.30
2012,10,09,08,54,9.40
2012,10,09,08,55,9.50
2012,10,09,08,56,9.70
2012,10,09,08,57,9.80
2012,10,09,08,58,9.90
2012,10,09,08,59,10.00
2012,10,09,09,00,10.00
2012,10,09,09,01,10.10
2012,10,09,09,02,10.20
2012,10,09,09,03,10.30
2012,10,09,09,04,10.30
2012,10,09,09,05,10.40
2012,10,09,09,06,10.40
2012,10,09,09,07,10.40
2012,10,09,09,08,10.50
2012,10,09,09,09,10.60
2012,10,09,09,10,10.60
2012,10,09,09,11,10.70
2012,10,09,09,12,10.80
2012,10,09,09,13,10.80
2012,10,09,09,14,10.90
2012,10,09,09,15,10.90
2012,10,09,09,16,11.00
2012,10,09,09,17,11.10
2012,10,09,09,18,11.10
2012,10,09,09,19,11.20
2012,10,09,09,20,11.20
2012,10,09,09,21,11.20
2012,10,09,09,22,11.30
2012,10,09,09,23,11.30
2012,10,09,09,24,11.40
2012,10,09,09,25,11.40
2012,10,09,09,26,11.40
2012,10,09,09,27,11.50
2012,10,09,09,28,11.50
2012,10,09,09,29,11.60
2012,10,09,09,30,11.60
2012,10,09,09,31,11.60
2012,10,09,09,32,11.60
2012,10,09,09,33,11.70
2012,10,09,09,34,11.70
2012,10,09,09,35,11.70
2012,10,09,09,36,11.70
2012,10,09,09,37,11.70
2012,10,09,09,38,11.70
2012,10,09,09,39,11.70
2012,10,09,09,40,11.70
2012,10,09,09,41,11.70
2012,10,09,09,42,11.80
2012,10,09,09,43,11.80
2012,10,09,09,44,11.80
2012,10,09,09,45,11.90
2012,10,09,09,46,11.90
2012,10,09,09,47,11.90
2012,10,09,09,48,12.00
2012,10,09,09,49,12.10
2012,10,09,09,50,12.10
2012,10,09,09,51,12.20
2012,10,09,09,52,12.20
2012,10,09,09,53,12.30
2012,10,09,09,54,12.30
2012,10,09,09,55,12.30
2012,10,09,09,56,12.30
2012,10,09,09,57,12.20
2012,10,09,09,58,12.20
2012,10,09,09,59,12.20
2012,10,09,10,00,12.10
2012,10,09,10,01,12.10
2012,10,09,10,02,12.00
2012,10,09,10,03,12.00
2012,10,09,10,04,11.90
2012,10,09,10,05,11.90
2012,10,09,10,06,11.90
2012,10,09,10,07,12.00
2012,10,09,10,08,12.00
2012,10,09,10,09,12.00
2012,10,09,10,10,12.10
2012,10,09,10,11,12.10
2012,10,09,10,12,12.20
2012,10,09,10,13,12.30
2012,10,09,10,14,12.30
2012,10,09,10,15,12.30
2012,10,09,10,16,12.30
2012,10,09,10,17,12.30
2012,10,09,10,18,12.30
2012,10,09,10,19,12.30
2012,10,09,10,20,12.40
2012,10,09,10,21,12.40
2012,10,09,10,22,12.40
2012,10,09,10,23,12.50
2012,10,09,10,24,12.50
2012,10,09,10,25,12.60
2012,10,09,10,26,12.60
2012,10,09,10,27,12.70
2012,10,09,10,28,12.70
2012,10,09,10,29,12.80
2012,10,09,10,30,12.80
2012,10,09,10,31,12.80
2012,10,09,10,32,12.80
2012,10,09,10,33,12.80
2012,10,09,10,34,12.90
2012,10,09,10,35,12.90
2012,10,09,10,36,12.90
2012,10,09,10,37,13.00
2012,10,09,10,38,13.00
2012,10,09,10,39,13.10
2012,10,09,10,40,13.10
2012,10,09,10,41,13.20
2012,10,09,10,42,13.20
2012,10,09,10,43,13.20
2012,10,09,10,44,13.20
2012,10,09,10,45,13.30
2012,10,09,10,46,13.30
2012,10,09,10,47,13.30
2012,10,09,10,48,13.40
2012,10,09,10,49,13.40
2012,10,09,10,50,13.40
2012,10,09,10,51,13.40
2012,10,09,10,52,13.40
2012,10,09,10,53,13.40
2012,10,09,10,54,13.40
2012,10,09,10,55,13.50
2012,10,09,10,56,13.50
2012,10,09,10,57,13.60
2012,10,09,10,58,13.60
2012,10,09,10,59,13.60
2012,10,09,11,00,13.60
2012,10,09,11,01,13.70
2012,10,09,11,02,13.80
2012,10,09,11,03,13.80
2012,10,09,11,04,13.80
2012,10,09,11,05,13.90
2012,10,09,11,06,13.90
2012,10,09,11,07,13.90
2012,10,09,11,08,13.80
2012,10,09,11,09,13.70
2012,10,09,11,10,13.70
2012,10,09,11,11,13.70
2012,10,09,11,12,13.70
2012,10,09,11,13,13.60
2012,10,09,11,14,13.60
2012,10,09,11,15,13.60
2012,10,09,11,16,13.60
2012,10,09,11,17,13.60
2012,10,09,11,18,13.70
2012,10,09,11,19,13.70
2012,10,09,11,20,13.60
2012,10,09,11,21,13.60
2012,10,09,11,22,13.60
2012,10,09,11,23,13.50
2012,10,09,11,24,13.50
2012,10,09,11,25,13.50
2012,10,09,11,26,13.50
2012,10,09,11,27,13.50
2012,10,09,11,28,13.60
2012,10,09,11,29,13.70
2012,10,09,11,30,13.70
2012,10,09,11,31,13.80
2012,10,09,11,32,13.80
2012,10,09,11,33,13.90
2012,10,09,11,34,13.90
2012,10,09,11,35,14.00
2012,10,09,11,36,14.10
2012,10,09,11,37,14.10
2012,10,09,11,38,14.20
2012,10,09,11,39,14.20
2012,10,09,11,40,14.30
2012,10,09,11,41,14.30
2012,10,09,11,42,14.30
2012,10,09,11,43,14.30
2012,10,09,11,44,14.30
2012,10,09,11,45,14.30
2012,10,09,11,46,14.20
2012,10,09,11,47,14.00
2012,10,09,11,48,13.90
2012,10,09,11,49,13.80
2012,10,09,11,50,13.80
2012,10,09,11,51,13.80
2012,10,09,11,52,13.80
2012,10,09,11,53,13.80
2012,10,09,11,54,13.80
2012,10,09,11,55,13.80
2012,10,09,11,56,13.80
2012,10,09,11,57,13.70
2012,10,09,11,58,13.80
2012,10,09,11,59,13.80
2012,10,09,12,00,13.80
2012,10,09,12,01,13.90
2012,10,09,12,02,14.00
2012,10,09,12,03,14.10
2012,10,09,12,04,14.10
2012,10,09,12,05,14.20
2012,10,09,12,06,14.30
2012,10,09,12,07,14.40
2012,10,09,12,08,14.40
2012,10,09,12,09,14.50
2012,10,09,12,10,14.50
2012,10,09,12,11,14.60
2012,10,09,12,12,14.60
2012,10,09,12,13,14.60
2012,10,09,12,14,14.70
2012,10,09,12,15,14.70
2012,10,09,12,16,14.70
2012,10,09,12,17,14.70
2012,10,09,12,18,14.70
2012,10,09,12,19,14.70
2012,10,09,12,20,14.70
2012,10,09,12,21,14.70
2012,10,09,12,22,14.70
2012,10,09,12,23,14.80
2012,10,09,12,24,14.80
2012,10,09,12,25,14.90
2012,10,09,12,26,14.90
2012,10,09,12,27,14.90
2012,10,09,12,28,14.80
2012,10,09,12,29,14.80
2012,10,09,12,30,14.70
2012,10,09,12,31,14.70
2012,10,09,12,32,14.70
2012,10,09,12,33,14.70
2012,10,09,12,34,14.70
2012,10,09,12,35,14.70
2012,10,09,12,36,14.70
2012,10,09,12,37,14.80
2012,10,09,12,38,14.80
2012,10,09,12,39,14.80
2012,10,09,12,40,14.80
2012,10,09,12,41,14.70
2012,10,09,12,42,14.80
2012,10,09,12,43,14.80
2012,10,09,12,44,14.80
2012,10,09,12,45,14.80
2012,10,09,12,46,14.80
2012,10,09,12,47,14.60
2012,10,09,12,48,14.60
2012,10,09,12,49,14.60
2012,10,09,12,50,14.60
2012,10,09,12,51,14.60
2012,10,09,12,52,14.70
2012,10,09,12,53,14.70
2012,10,09,12,54,14.70
2012,10,09,12,55,14.60
2012,10,09,12,56,14.60
2012,10,09,12,57,14.60
2012,10,09,12,58,14.70
2012,10,09,12,59,14.70
2012,10,09,13,00,14.80
2012,10,09,13,01,14.80
2012,10,09,13,02,14.80
2012,10,09,13,03,14.80
2012,10,09,13,04,14.80
2012,10,09,13,05,14.80
2012,10,09,13,06,14.80
2012,10,09,13,07,14.80
2012,10,09,13,08,14.90
2012,10,09,13,09,15.00
2012,10,09,13,10,15.00
2012,10,09,13,11,15.00
2012,10,09,13,12,15.00
2012,10,09,13,13,15.00
2012,10,09,13,14,15.00
2012,10,09,13,15,15.00
2012,10,09,13,16,15.00
2012,10,09,13,17,15.00
2012,10,09,13,18,15.00
2012,10,09,13,19,15.00
2012,10,09,13,20,15.00
2012,10,09,13,21,15.00
2012,10,09,13,22,15.00
2012,10,09,13,23,15.00
2012,10,09,13,24,15.00
2012,10,09,13,25,15.00
2012,10,09,13,26,15.00
2012,10,09,13,27,15.00
2012,10,09,13,28,15.00
2012,10,09,13,29,15.00
2012,10,09,13,30,15.00
2012,10,09,13,31,15.00
2012,10,09,13,32,15.00
2012,10,09,13,33,14.90
2012,10,09,13,34,14.80
2012,10,09,13,35,14.90
2012,10,09,13,36,15.00
2012,10,09,13,37,15.00
2012,10,09,13,38,15.00
2012,10,09,13,39,15.10
2012,10,09,13,40,15.10
2012,10,09,13,41,15.10
2012,10,09,13,42,15.10
2012,10,09,13,43,15.20
2012,10,09,13,44,15.30
2012,10,09,13,45,15.40
2012,10,09,13,46,15.50
2012,10,09,13,47,15.60
2012,10,09,13,48,15.70
2012,10,09,13,49,15.70
2012,10,09,13,50,15.80
2012,10,09,13,51,15.80
2012,10,09,13,52,15.80
2012,10,09,13,53,15.80
2012,10,09,13,54,15.80
2012,10,09,13,55,15.80
2012,10,09,13,56,15.90
2012,10,09,13,57,16.00
2012,10,09,13,58,16.00
2012,10,09,13,59,16.00
2012,10,09,14,00,15.90
2012,10,09,14,01,15.80
2012,10,09,14,02,15.80
2012,10,09,14,03,15.80
2012,10,09,14,04,15.80
2012,10,09,14,05,15.80
2012,10,09,14,06,15.80
2012,10,09,14,07,15.90
2012,10,09,14,08,15.90
2012,10,09,14,09,16.00
2012,10,09,14,10,16.10
2012,10,09,14,11,16.20
2012,10,09,14,12,16.30
2012,10,09,14,13,16.30
2012,10,09,14,14,16.40
2012,10,09,14,15,16.40
2012,10,09,14,16,16.50
2012,10,09,14,17,16.50
2012,10,09,14,18,16.60
2012,10,09,14,19,16.70
2012,10,09,14,20,16.80
2012,10,09,14,21,16.90
2012,10,09,14,22,16.90
2012,10,09,14,23,17.10
2012,10,09,14,24,17.20
2012,10,09,14,25,17.30
2012,10,09,14,26,17.30
2012,10,09,14,27,17.40
2012,10,09,14,28,17.50
2012,10,09,14,29,17.50
2012,10,09,14,30,17.60
2012,10,09,14,31,17.70
2012,10,09,14,32,17.70
2012,10,09,14,33,17.80
2012,10,09,14,34,17.70
2012,10,09,14,35,17.70
2012,10,09,14,36,17.70
2012,10,09,14,37,17.70
2012,10,09,14,38,17.80
2012,10,09,14,39,17.80
2012,10,09,14,40,17.90
2012,10,09,14,41,17.90
2012,10,09,14,42,18.00
2012,10,09,14,43,18.00
2012,10,09,14,44,18.10
2012,10,09,14,45,18.10
2012,10,09,14,46,18.10
2012,10,09,14,47,18.00
2012,10,09,14,48,18.00
2012,10,09,14,49,18.00
2012,10,09,14,50,18.00
2012,10,09,14,51,18.00
2012,10,09,14,52,18.00
2012,10,09,14,53,17.90
2012,10,09,14,54,18.00
2012,10,09,14,55,18.00
2012,10,09,14,56,18.00
2012,10,09,14,57,18.10
2012,10,09,14,58,18.10
2012,10,09,14,59,18.10
2012,10,09,15,00,18.10
2012,10,09,15,01,18.20
2012,10,09,15,02,18.20
2012,10,09,15,03,18.10
2012,10,09,15,04,18.10
2012,10,09,15,05,18.10
2012,10,09,15,06,18.20
2012,10,09,15,07,18.20
2012,10,09,15,08,18.20
2012,10,09,15,09,18.10
2012,10,09,15,10,18.00
2012,10,09,15,11,17.90
2012,10,09,15,12,17.90
2012,10,09,15,13,17.90
2012,10,09,15,14,17.90
2012,10,09,15,15,17.90
2012,10,09,15,16,17.90
2012,10,09,15,17,17.90
2012,10,09,15,18,17.90
2012,10,09,15,19,17.90
2012,10,09,15,20,17.90
2012,10,09,15,21,17.90
2012,10,09,15,22,17.90
2012,10,09,15,23,17.90
2012,10,09,15,24,17.80
2012,10,09,15,25,17.70
2012,10,09,15,26,17.70
2012,10,09,15,27,17.70
2012,10,09,15,28,17.70
2012,10,09,15,29,17.80
2012,10,09,15,30,17.80
2012,10,09,15,31,17.80
2012,10,09,15,32,17.80
2012,10,09,15,33,17.90
2012,10,09,15,34,17.90
2012,10,09,15,35,18.00
2012,10,09,15,36,18.00
2012,10,09,15,37,18.10
2012,10,09,15,38,18.10
2012,10,09,15,39,18.10
2012,10,09,15,40,18.10
2012,10,09,15,41,18.00
2012,10,09,15,42,18.00
2012,10,09,15,43,17.90
2012,10,09,15,44,17.90
2012,10,09,15,45,17.90
2012,10,09,15,46,17.90
2012,10,09,15,47,17.90
2012,10,09,15,48,17.90
2012,10,09,15,49,17.90
2012,10,09,15,50,17.90
2012,10,09,15,51,17.90
2012,10,09,15,52,18.00
2012,10,09,15,53,18.10
2012,10,09,15,54,18.00
2012,10,09,15,55,17.90
2012,10,09,15,56,17.90
2012,10,09,15,57,17.90
2012,10,09,15,58,18.00
2012,10,09,15,59,18.00
2012,10,09,16,00,18.00
2012,10,09,16,01,18.10
2012,10,09,16,02,18.00
2012,10,09,16,03,18.00
2012,10,09,16,04,18.00
2012,10,09,16,05,18.00
2012,10,09,16,06,18.00
2012,10,09,16,07,18.00
2012,10,09,16,08,17.90
2012,10,09,16,09,17.80
2012,10,09,16,10,17.80
2012,10,09,16,11,17.70
2012,10,09,16,12,17.60
2012,10,09,16,13,17.50
2012,10,09,16,14,17.50
2012,10,09,16,15,17.40
2012,10,09,16,16,17.40
2012,10,09,16,17,17.40
2012,10,09,16,18,17.40
2012,10,09,16,19,17.30
2012,10,09,16,20,17.30
2012,10,09,16,21,17.30
2012,10,09,16,22,17.30
2012,10,09,16,23,17.30
2012,10,09,16,24,17.30
2012,10,09,16,25,17.30
2012,10,09,16,26,17.30
2012,10,09,16,27,17.30
2012,10,09,16,28,17.30
2012,10,09,16,29,17.30
2012,10,09,16,30,17.30
2012,10,09,16,31,17.30
2012,10,09,16,32,17.30
2012,10,09,16,33,17.30
2012,10,09,16,34,17.30
2012,10,09,16,35,17.20
2012,10,09,16,36,17.20
2012,10,09,16,37,17.20
2012,10,09,16,38,17.20
2012,10,09,16,39,17.10
2012,10,09,16,40,17.10
2012,10,09,16,41,17.10
2012,10,09,16,42,17.10
2012,10,09,16,43,17.00
2012,10,09,16,44,17.00
2012,10,09,16,45,17.00
2012,10,09,16,46,17.00
2012,10,09,16,47,17.10
2012,10,09,16,48,17.10
2012,10,09,16,49,17.10
2012,10,09,16,50,17.00
2012,10,09,16,51,17.00
2012,10,09,16,52,17.00
2012,10,09,16,53,16.90
2012,10,09,16,54,16.90
2012,10,09,16,55,16.90
2012,10,09,16,56,16.90
2012,10,09,16,57,16.80
2012,10,09,16,58,16.80
2012,10,09,16,59,16.70
2012,10,09,17,00,16.70
2012,10,09,17,01,16.70
2012,10,09,17,02,16.70
2012,10,09,17,03,16.70
2012,10,09,17,04,16.70
2012,10,09,17,05,16.70
2012,10,09,17,06,16.60
2012,10,09,17,07,16.60
2012,10,09,17,08,16.60
2012,10,09,17,09,16.60
2012,10,09,17,10,16.60
2012,10,09,17,11,16.50
2012,10,09,17,12,16.50
2012,10,09,17,13,16.50
2012,10,09,17,14,16.50
2012,10,09,17,15,16.60
2012,10,09,17,16,16.60
2012,10,09,17,17,16.60
2012,10,09,17,18,16.70
2012,10,09,17,19,16.70
2012,10,09,17,20,16.80
2012,10,09,17,21,16.80
2012,10,09,17,22,16.80
2012,10,09,17,23,16.80
2012,10,09,17,24,16.80
2012,10,09,17,25,16.80
2012,10,09,17,26,16.80
2012,10,09,17,27,16.70
2012,10,09,17,28,16.70
2012,10,09,17,29,16.60
2012,10,09,17,30,16.60
2012,10,09,17,31,16.50
2012,10,09,17,32,16.50
2012,10,09,17,33,16.40
2012,10,09,17,34,16.30
2012,10,09,17,35,16.30
2012,10,09,17,36,16.20
2012,10,09,17,37,16.20
2012,10,09,17,38,16.10